owner,sensor,date,latitude,longitude,air_pressure(mBar),qcFlag 
TABS,ioos:station:wmo:42047:1,2002-09-01T00:09:00Z,27.8966,-93.5973,1013.66,11111222 
TABS,ioos:station:wmo:42047:1,2002-09-01T00:39:00Z,27.8966,-93.5973,1013.85,11111222 
TABS,ioos:station:wmo:42047:1,2002-09-01T01:09:00Z,27.8966,-93.5973,1013.92,11111222 
TABS,ioos:station:wmo:42047:1,2002-09-01T01:39:00Z,27.8966,-93.5973,1013.98,11111222 
TABS,ioos:station:wmo:42047:1,2002-09-01T02:09:00Z,27.8966,-93.5973,1014.3,11111222 
TABS,ioos:station:wmo:42047:1,2002-09-01T02:39:00Z,27.8966,-93.5973,1014.42,11111222 
TABS,ioos:station:wmo:42047:1,2002-09-01T03:09:00Z,27.8966,-93.5973,1014.42,11111222 
TABS,ioos:station:wmo:42047:1,2002-09-01T03:39:00Z,27.8966,-93.5973,1014.8,11111222 
TABS,ioos:station:wmo:42047:1,2002-09-01T04:09:00Z,27.8966,-93.5973,1014.68,11111222 
TABS,ioos:station:wmo:42047:1,2002-09-01T04:39:00Z,27.8966,-93.5973,1014.61,11111222 
TABS,ioos:station:wmo:42047:1,2002-09-01T05:09:00Z,27.8966,-93.5973,1014.42,11111222 
TABS,ioos:station:wmo:42047:1,2002-09-01T05:39:00Z,27.8966,-93.5973,1014.17,11111222 
TABS,ioos:station:wmo:42047:1,2002-09-01T06:09:00Z,27.8966,-93.5973,1014.11,11111222 
TABS,ioos:station:wmo:42047:1,2002-09-01T06:39:00Z,27.8966,-93.5973,1014.04,11111222 
TABS,ioos:station:wmo:42047:1,2002-09-01T07:09:00Z,27.8966,-93.5973,1013.79,11111222 
TABS,ioos:station:wmo:42047:1,2002-09-01T07:39:00Z,27.8966,-93.5973,1013.54,11111222 
TABS,ioos:station:wmo:42047:1,2002-09-01T08:09:00Z,27.8966,-93.5973,1013.28,11111222 
TABS,ioos:station:wmo:42047:1,2002-09-01T08:39:00Z,27.8966,-93.5973,1013.03,11111222 
TABS,ioos:station:wmo:42047:1,2002-09-01T09:09:00Z,27.8966,-93.5973,1012.9,11111222 
TABS,ioos:station:wmo:42047:1,2002-09-01T09:39:00Z,27.8966,-93.5973,1012.96,11111222 
TABS,ioos:station:wmo:42047:1,2002-09-01T10:09:00Z,27.8966,-93.5973,1012.65,11111222 
TABS,ioos:station:wmo:42047:1,2002-09-01T10:39:00Z,27.8966,-93.5973,1012.96,11111222 
TABS,ioos:station:wmo:42047:1,2002-09-01T11:09:00Z,27.8966,-93.5973,1013.09,11111222 
TABS,ioos:station:wmo:42047:1,2002-09-01T11:39:00Z,27.8966,-93.5973,1013.03,11111222 
TABS,ioos:station:wmo:42047:1,2002-09-01T12:09:00Z,27.8966,-93.5973,1013.09,11111222 
TABS,ioos:station:wmo:42047:1,2002-09-01T12:39:00Z,27.8966,-93.5973,1013.54,11111222 
TABS,ioos:station:wmo:42047:1,2002-09-01T13:09:00Z,27.8966,-93.5973,1013.66,11111222 
TABS,ioos:station:wmo:42047:1,2002-09-01T13:39:00Z,27.8966,-93.5973,1013.79,11111222 
TABS,ioos:station:wmo:42047:1,2002-09-01T14:09:00Z,27.8966,-93.5973,1013.98,11111222 
TABS,ioos:station:wmo:42047:1,2002-09-01T14:39:00Z,27.8966,-93.5973,1014.17,11111222 
TABS,ioos:station:wmo:42047:1,2002-09-01T15:09:00Z,27.8966,-93.5973,1014.23,11111222 
TABS,ioos:station:wmo:42047:1,2002-09-01T15:39:00Z,27.8966,-93.5973,1014.42,11111222 
TABS,ioos:station:wmo:42047:1,2002-09-01T16:09:00Z,27.8966,-93.5973,1014.55,11111222 
TABS,ioos:station:wmo:42047:1,2002-09-01T16:39:00Z,27.8966,-93.5973,1014.55,11111222 
TABS,ioos:station:wmo:42047:1,2002-09-01T17:09:00Z,27.8966,-93.5973,1014.23,11111222 
TABS,ioos:station:wmo:42047:1,2002-09-01T17:39:00Z,27.8966,-93.5973,1013.92,11111222 
TABS,ioos:station:wmo:42047:1,2002-09-01T18:09:00Z,27.8966,-93.5973,1013.98,11111222 
TABS,ioos:station:wmo:42047:1,2002-09-01T18:39:00Z,27.8966,-93.5973,1013.47,11111222 
TABS,ioos:station:wmo:42047:1,2002-09-01T19:09:00Z,27.8966,-93.5973,1013.15,11111222 
TABS,ioos:station:wmo:42047:1,2002-09-01T19:39:00Z,27.8966,-93.5973,1012.9,11111222 
TABS,ioos:station:wmo:42047:1,2002-09-01T20:09:00Z,27.8966,-93.5973,1012.65,11111222 
TABS,ioos:station:wmo:42047:1,2002-09-01T20:39:00Z,27.8966,-93.5973,1012.39,11111222 
TABS,ioos:station:wmo:42047:1,2002-09-01T21:09:00Z,27.8966,-93.5973,1012.33,11111222 
TABS,ioos:station:wmo:42047:1,2002-09-01T21:39:00Z,27.8966,-93.5973,1012.08,11111222 
TABS,ioos:station:wmo:42047:1,2002-09-01T22:09:00Z,27.8966,-93.5973,1012.01,11111222 
TABS,ioos:station:wmo:42047:1,2002-09-01T22:39:00Z,27.8966,-93.5973,1012.01,11111222 
TABS,ioos:station:wmo:42047:1,2002-09-01T23:09:00Z,27.8966,-93.5973,1011.95,11111222 
TABS,ioos:station:wmo:42047:1,2002-09-01T23:39:00Z,27.8966,-93.5973,1011.95,11111222 
TABS,ioos:station:wmo:42047:1,2002-09-02T00:09:00Z,27.8966,-93.5973,1011.88,11111222 
TABS,ioos:station:wmo:42047:1,2002-09-02T00:39:00Z,27.8966,-93.5973,1011.88,11111222 
TABS,ioos:station:wmo:42047:1,2002-09-02T01:09:00Z,27.8966,-93.5973,1012.01,11111222 
TABS,ioos:station:wmo:42047:1,2002-09-02T01:39:00Z,27.8966,-93.5973,1012.14,11111222 
TABS,ioos:station:wmo:42047:1,2002-09-02T02:09:00Z,27.8966,-93.5973,1012.27,11111222 
TABS,ioos:station:wmo:42047:1,2002-09-02T02:39:00Z,27.8966,-93.5973,1012.58,11111222 
TABS,ioos:station:wmo:42047:1,2002-09-02T03:09:00Z,27.8966,-93.5973,1012.84,11111222 
TABS,ioos:station:wmo:42047:1,2002-09-02T03:39:00Z,27.8966,-93.5973,1012.96,11111222 
TABS,ioos:station:wmo:42047:1,2002-09-02T04:09:00Z,27.8966,-93.5973,1012.84,11111222 
TABS,ioos:station:wmo:42047:1,2002-09-02T04:39:00Z,27.8966,-93.5973,1012.52,11111222 
TABS,ioos:station:wmo:42047:1,2002-09-02T05:09:00Z,27.8966,-93.5973,1012.27,11111222 
TABS,ioos:station:wmo:42047:1,2002-09-02T05:39:00Z,27.8966,-93.5973,1012.08,11111222 
TABS,ioos:station:wmo:42047:1,2002-09-02T06:09:00Z,27.8966,-93.5973,1011.95,11111222 
TABS,ioos:station:wmo:42047:1,2002-09-02T06:39:00Z,27.8966,-93.5973,1011.76,11111222 
TABS,ioos:station:wmo:42047:1,2002-09-02T07:09:00Z,27.8966,-93.5973,1011.5,11111222 
TABS,ioos:station:wmo:42047:1,2002-09-02T07:39:00Z,27.8966,-93.5973,1011.12,11111222 
TABS,ioos:station:wmo:42047:1,2002-09-02T08:09:00Z,27.8966,-93.5973,1010.87,11111222 
TABS,ioos:station:wmo:42047:1,2002-09-02T08:39:00Z,27.8966,-93.5973,1010.74,11111222 
TABS,ioos:station:wmo:42047:1,2002-09-02T09:09:00Z,27.8966,-93.5973,1010.74,11111222 
TABS,ioos:station:wmo:42047:1,2002-09-02T09:39:00Z,27.8966,-93.5973,1010.74,11111222 
TABS,ioos:station:wmo:42047:1,2002-09-02T10:09:00Z,27.8966,-93.5973,1010.62,11111222 
TABS,ioos:station:wmo:42047:1,2002-09-02T10:39:00Z,27.8966,-93.5973,1010.55,11111222 
TABS,ioos:station:wmo:42047:1,2002-09-02T11:09:00Z,27.8966,-93.5973,1010.62,11111222 
TABS,ioos:station:wmo:42047:1,2002-09-02T11:39:00Z,27.8966,-93.5973,1010.87,11111222 
TABS,ioos:station:wmo:42047:1,2002-09-02T12:09:00Z,27.8966,-93.5973,1011.0,11111222 
TABS,ioos:station:wmo:42047:1,2002-09-02T12:39:00Z,27.8966,-93.5973,1011.31,11111222 
TABS,ioos:station:wmo:42047:1,2002-09-02T13:09:00Z,27.8966,-93.5973,1011.5,11111222 
TABS,ioos:station:wmo:42047:1,2002-09-02T13:39:00Z,27.8966,-93.5973,1011.44,11111222 
TABS,ioos:station:wmo:42047:1,2002-09-02T14:09:00Z,27.8966,-93.5973,1011.57,11111222 
TABS,ioos:station:wmo:42047:1,2002-09-02T14:39:00Z,27.8966,-93.5973,1011.44,11111222 
TABS,ioos:station:wmo:42047:1,2002-09-02T15:09:00Z,27.8966,-93.5973,1011.57,11111222 
TABS,ioos:station:wmo:42047:1,2002-09-02T15:39:00Z,27.8966,-93.5973,1011.5,11111222 
TABS,ioos:station:wmo:42047:1,2002-09-02T16:09:00Z,27.8966,-93.5973,1011.57,11111222 
TABS,ioos:station:wmo:42047:1,2002-09-02T16:39:00Z,27.8966,-93.5973,1011.5,11111222 
TABS,ioos:station:wmo:42047:1,2002-09-02T17:09:00Z,27.8966,-93.5973,1011.57,11111222 
TABS,ioos:station:wmo:42047:1,2002-09-02T17:39:00Z,27.8966,-93.5973,1011.19,11111222 
TABS,ioos:station:wmo:42047:1,2002-09-02T18:09:00Z,27.8966,-93.5973,1011.06,11111222 
TABS,ioos:station:wmo:42047:1,2002-09-02T18:39:00Z,27.8966,-93.5973,1010.81,11111222 
TABS,ioos:station:wmo:42047:1,2002-09-02T19:09:00Z,27.8966,-93.5973,1010.55,11111222 
TABS,ioos:station:wmo:42047:1,2002-09-02T19:39:00Z,27.8966,-93.5973,1010.3,11111222 
TABS,ioos:station:wmo:42047:1,2002-09-02T20:09:00Z,27.8966,-93.5973,1009.79,11111222 
TABS,ioos:station:wmo:42047:1,2002-09-02T20:39:00Z,27.8966,-93.5973,1009.6,11111222 
TABS,ioos:station:wmo:42047:1,2002-09-02T21:09:00Z,27.8966,-93.5973,1009.66,11111222 
TABS,ioos:station:wmo:42047:1,2002-09-02T21:39:00Z,27.8966,-93.5973,1009.41,11111222 
TABS,ioos:station:wmo:42047:1,2002-09-02T22:09:00Z,27.8966,-93.5973,1009.54,11111222 
TABS,ioos:station:wmo:42047:1,2002-09-02T22:39:00Z,27.8966,-93.5973,1009.41,11111222 
TABS,ioos:station:wmo:42047:1,2002-09-02T23:09:00Z,27.8966,-93.5973,1009.03,11111222 
TABS,ioos:station:wmo:42047:1,2002-09-02T23:39:00Z,27.8966,-93.5973,1008.84,11111222 
TABS,ioos:station:wmo:42047:1,2002-09-03T00:09:00Z,27.8966,-93.5973,1009.03,11111222 
TABS,ioos:station:wmo:42047:1,2002-09-03T00:39:00Z,27.8966,-93.5973,1009.03,11111222 
TABS,ioos:station:wmo:42047:1,2002-09-03T01:09:00Z,27.8966,-93.5973,1009.03,11111222 
TABS,ioos:station:wmo:42047:1,2002-09-03T01:39:00Z,27.8966,-93.5973,1009.22,11111222 
TABS,ioos:station:wmo:42047:1,2002-09-03T02:09:00Z,27.8966,-93.5973,1009.66,11111222 
TABS,ioos:station:wmo:42047:1,2002-09-03T02:39:00Z,27.8966,-93.5973,1010.11,11111222 
TABS,ioos:station:wmo:42047:1,2002-09-03T03:09:00Z,27.8966,-93.5973,1010.36,11111222 
TABS,ioos:station:wmo:42047:1,2002-09-03T03:39:00Z,27.8966,-93.5973,1010.49,11111222 
TABS,ioos:station:wmo:42047:1,2002-09-03T04:09:00Z,27.8966,-93.5973,1010.36,11111222 
TABS,ioos:station:wmo:42047:1,2002-09-03T04:39:00Z,27.8966,-93.5973,1010.23,11111222 
TABS,ioos:station:wmo:42047:1,2002-09-03T05:09:00Z,27.8966,-93.5973,1010.17,11111222 
TABS,ioos:station:wmo:42047:1,2002-09-03T05:39:00Z,27.8966,-93.5973,1009.85,11111222 
TABS,ioos:station:wmo:42047:1,2002-09-03T06:09:00Z,27.8966,-93.5973,1009.73,11111222 
TABS,ioos:station:wmo:42047:1,2002-09-03T06:39:00Z,27.8966,-93.5973,1009.41,11111222 
TABS,ioos:station:wmo:42047:1,2002-09-03T07:09:00Z,27.8966,-93.5973,1009.09,11111222 
TABS,ioos:station:wmo:42047:1,2002-09-03T07:39:00Z,27.8966,-93.5973,1009.03,11111222 
TABS,ioos:station:wmo:42047:1,2002-09-03T08:09:00Z,27.8966,-93.5973,1008.9,11111222 
TABS,ioos:station:wmo:42047:1,2002-09-03T08:39:00Z,27.8966,-93.5973,1008.71,11111222 
TABS,ioos:station:wmo:42047:1,2002-09-03T09:09:00Z,27.8966,-93.5973,1008.77,11111222 
TABS,ioos:station:wmo:42047:1,2002-09-03T09:39:00Z,27.8966,-93.5973,1008.58,11111222 
TABS,ioos:station:wmo:42047:1,2002-09-03T10:09:00Z,27.8966,-93.5973,1008.58,11111222 
TABS,ioos:station:wmo:42047:1,2002-09-03T10:39:00Z,27.8966,-93.5973,1009.09,11111222 
TABS,ioos:station:wmo:42047:1,2002-09-03T11:09:00Z,27.8966,-93.5973,1009.28,11111222 
TABS,ioos:station:wmo:42047:1,2002-09-03T11:39:00Z,27.8966,-93.5973,1009.54,11111222 
TABS,ioos:station:wmo:42047:1,2002-09-03T12:09:00Z,27.8966,-93.5973,1009.6,11111222 
TABS,ioos:station:wmo:42047:1,2002-09-03T12:39:00Z,27.8966,-93.5973,1010.11,11111222 
TABS,ioos:station:wmo:42047:1,2002-09-03T13:09:00Z,27.8966,-93.5973,1010.17,11111222 
TABS,ioos:station:wmo:42047:1,2002-09-03T13:39:00Z,27.8966,-93.5973,1010.04,11111222 
TABS,ioos:station:wmo:42047:1,2002-09-03T14:09:00Z,27.8966,-93.5973,1010.04,11111222 
TABS,ioos:station:wmo:42047:1,2002-09-03T14:39:00Z,27.8966,-93.5973,1010.81,11111222 
TABS,ioos:station:wmo:42047:1,2002-09-03T15:09:00Z,27.8966,-93.5973,1011.25,11111222 
TABS,ioos:station:wmo:42047:1,2002-09-03T15:39:00Z,27.8966,-93.5973,1011.5,11111222 
TABS,ioos:station:wmo:42047:1,2002-09-03T16:09:00Z,27.8966,-93.5973,1011.5,11111222 
TABS,ioos:station:wmo:42047:1,2002-09-03T16:39:00Z,27.8966,-93.5973,1011.38,11111222 
TABS,ioos:station:wmo:42047:1,2002-09-03T17:09:00Z,27.8966,-93.5973,1011.19,11111222 
TABS,ioos:station:wmo:42047:1,2002-09-03T17:39:00Z,27.8966,-93.5973,1010.87,11111222 
TABS,ioos:station:wmo:42047:1,2002-09-03T18:09:00Z,27.8966,-93.5973,1011.19,11111222 
TABS,ioos:station:wmo:42047:1,2002-09-03T18:39:00Z,27.8966,-93.5973,1011.31,11111222 
TABS,ioos:station:wmo:42047:1,2002-09-03T19:09:00Z,27.8966,-93.5973,1011.44,11111222 
TABS,ioos:station:wmo:42047:1,2002-09-03T19:39:00Z,27.8966,-93.5973,1011.12,11111222 
TABS,ioos:station:wmo:42047:1,2002-09-03T20:09:00Z,27.8966,-93.5973,1010.04,11111222 
TABS,ioos:station:wmo:42047:1,2002-09-03T20:39:00Z,27.8966,-93.5973,1009.98,11111222 
TABS,ioos:station:wmo:42047:1,2002-09-03T21:09:00Z,27.8966,-93.5973,1009.92,11111222 
TABS,ioos:station:wmo:42047:1,2002-09-03T21:39:00Z,27.8966,-93.5973,1009.73,11111222 
TABS,ioos:station:wmo:42047:1,2002-09-03T22:09:00Z,27.8966,-93.5973,1009.85,11111222 
TABS,ioos:station:wmo:42047:1,2002-09-03T22:39:00Z,27.8966,-93.5973,1009.98,11111222 
TABS,ioos:station:wmo:42047:1,2002-09-03T23:09:00Z,27.8966,-93.5973,1010.11,11111222 
TABS,ioos:station:wmo:42047:1,2002-09-03T23:39:00Z,27.8966,-93.5973,1010.55,11111222 
TABS,ioos:station:wmo:42047:1,2002-09-04T00:09:00Z,27.8966,-93.5973,1010.49,11111222 
TABS,ioos:station:wmo:42047:1,2002-09-04T00:39:00Z,27.8966,-93.5973,1010.55,11111222 
TABS,ioos:station:wmo:42047:1,2002-09-04T01:09:00Z,27.8966,-93.5973,1010.74,11111222 
TABS,ioos:station:wmo:42047:1,2002-09-04T01:39:00Z,27.8966,-93.5973,1010.55,11111222 
TABS,ioos:station:wmo:42047:1,2002-09-04T02:09:00Z,27.8966,-93.5973,1010.93,11111222 
TABS,ioos:station:wmo:42047:1,2002-09-04T02:39:00Z,27.8966,-93.5973,1011.44,11111222 
TABS,ioos:station:wmo:42047:1,2002-09-04T03:09:00Z,27.8966,-93.5973,1011.63,11111222 
TABS,ioos:station:wmo:42047:1,2002-09-04T03:39:00Z,27.8966,-93.5973,1011.57,11111222 
TABS,ioos:station:wmo:42047:1,2002-09-04T04:09:00Z,27.8966,-93.5973,1011.63,11111222 
TABS,ioos:station:wmo:42047:1,2002-09-04T04:39:00Z,27.8966,-93.5973,1011.38,11111222 
TABS,ioos:station:wmo:42047:1,2002-09-04T05:09:00Z,27.8966,-93.5973,1011.76,11111222 
TABS,ioos:station:wmo:42047:1,2002-09-04T05:39:00Z,27.8966,-93.5973,1011.63,11111222 
TABS,ioos:station:wmo:42047:1,2002-09-04T06:09:00Z,27.8966,-93.5973,1011.5,11111222 
TABS,ioos:station:wmo:42047:1,2002-09-04T06:39:00Z,27.8966,-93.5973,1011.44,11111222 
TABS,ioos:station:wmo:42047:1,2002-09-04T07:09:00Z,27.8966,-93.5973,1011.19,11111222 
TABS,ioos:station:wmo:42047:1,2002-09-04T07:39:00Z,27.8966,-93.5973,1011.12,11111222 
TABS,ioos:station:wmo:42047:1,2002-09-04T08:09:00Z,27.8966,-93.5973,1010.87,11111222 
TABS,ioos:station:wmo:42047:1,2002-09-04T08:39:00Z,27.8966,-93.5973,1010.42,11111222 
TABS,ioos:station:wmo:42047:1,2002-09-04T09:09:00Z,27.8966,-93.5973,1010.42,11111222 
TABS,ioos:station:wmo:42047:1,2002-09-04T09:39:00Z,27.8966,-93.5973,1010.3,11111222 
TABS,ioos:station:wmo:42047:1,2002-09-04T10:09:00Z,27.8966,-93.5973,1010.17,11111222 
TABS,ioos:station:wmo:42047:1,2002-09-04T10:39:00Z,27.8966,-93.5973,1010.3,11111222 
TABS,ioos:station:wmo:42047:1,2002-09-04T11:09:00Z,27.8966,-93.5973,1010.36,11111222 
TABS,ioos:station:wmo:42047:1,2002-09-04T11:39:00Z,27.8966,-93.5973,1010.62,11111222 
TABS,ioos:station:wmo:42047:1,2002-09-04T12:09:00Z,27.8966,-93.5973,1010.93,11111222 
TABS,ioos:station:wmo:42047:1,2002-09-04T12:39:00Z,27.8966,-93.5973,1011.06,11111222 
TABS,ioos:station:wmo:42047:1,2002-09-04T13:09:00Z,27.8966,-93.5973,1011.25,11111222 
TABS,ioos:station:wmo:42047:1,2002-09-04T13:39:00Z,27.8966,-93.5973,1011.57,11111222 
TABS,ioos:station:wmo:42047:1,2002-09-04T14:09:00Z,27.8966,-93.5973,1011.69,11111222 
TABS,ioos:station:wmo:42047:1,2002-09-04T14:39:00Z,27.8966,-93.5973,1011.76,11111222 
TABS,ioos:station:wmo:42047:1,2002-09-04T15:09:00Z,27.8966,-93.5973,1012.08,11111222 
TABS,ioos:station:wmo:42047:1,2002-09-04T15:39:00Z,27.8966,-93.5973,1012.08,11111222 
TABS,ioos:station:wmo:42047:1,2002-09-04T16:09:00Z,27.8966,-93.5973,1012.08,11111222 
TABS,ioos:station:wmo:42047:1,2002-09-04T16:39:00Z,27.8966,-93.5973,1012.2,11111222 
TABS,ioos:station:wmo:42047:1,2002-09-04T17:09:00Z,27.8966,-93.5973,1012.9,11111222 
TABS,ioos:station:wmo:42047:1,2002-09-04T17:39:00Z,27.8966,-93.5973,1013.03,11111222 
TABS,ioos:station:wmo:42047:1,2002-09-04T18:09:00Z,27.8966,-93.5973,1012.65,11111222 
TABS,ioos:station:wmo:42047:1,2002-09-04T18:39:00Z,27.8966,-93.5973,1012.01,11111222 
TABS,ioos:station:wmo:42047:1,2002-09-04T19:09:00Z,27.8966,-93.5973,1011.82,11111222 
TABS,ioos:station:wmo:42047:1,2002-09-04T19:39:00Z,27.8966,-93.5973,1011.82,11111222 
TABS,ioos:station:wmo:42047:1,2002-09-04T20:09:00Z,27.8966,-93.5973,1011.5,11111222 
TABS,ioos:station:wmo:42047:1,2002-09-04T20:39:00Z,27.8966,-93.5973,1011.5,11111222 
TABS,ioos:station:wmo:42047:1,2002-09-04T21:09:00Z,27.8966,-93.5973,1011.19,11111222 
TABS,ioos:station:wmo:42047:1,2002-09-04T21:39:00Z,27.8966,-93.5973,1010.87,11111222 
TABS,ioos:station:wmo:42047:1,2002-09-04T22:09:00Z,27.8966,-93.5973,1010.68,11111222 
TABS,ioos:station:wmo:42047:1,2002-09-04T22:39:00Z,27.8966,-93.5973,1010.81,11111222 
TABS,ioos:station:wmo:42047:1,2002-09-04T23:09:00Z,27.8966,-93.5973,1010.93,11111222 
TABS,ioos:station:wmo:42047:1,2002-09-04T23:39:00Z,27.8966,-93.5973,1011.12,11111222 
TABS,ioos:station:wmo:42047:1,2002-09-05T00:09:00Z,27.8966,-93.5973,1011.12,11111222 
TABS,ioos:station:wmo:42047:1,2002-09-05T00:39:00Z,27.8966,-93.5973,1011.38,11111222 
TABS,ioos:station:wmo:42047:1,2002-09-05T01:09:00Z,27.8966,-93.5973,1011.44,11111222 
TABS,ioos:station:wmo:42047:1,2002-09-05T01:39:00Z,27.8966,-93.5973,1011.31,11111222 
TABS,ioos:station:wmo:42047:1,2002-09-05T02:09:00Z,27.8966,-93.5973,1011.31,11111222 
TABS,ioos:station:wmo:42047:1,2002-09-05T02:39:00Z,27.8966,-93.5973,1011.31,11111222 
TABS,ioos:station:wmo:42047:1,2002-09-05T03:09:00Z,27.8966,-93.5973,1011.57,11111222 
TABS,ioos:station:wmo:42047:1,2002-09-05T03:39:00Z,27.8966,-93.5973,1011.76,11111222 
TABS,ioos:station:wmo:42047:1,2002-09-05T04:09:00Z,27.8966,-93.5973,1011.44,11111222 
TABS,ioos:station:wmo:42047:1,2002-09-05T04:39:00Z,27.8966,-93.5973,1011.69,11111222 
TABS,ioos:station:wmo:42047:1,2002-09-05T05:09:00Z,27.8966,-93.5973,1011.88,11111222 
TABS,ioos:station:wmo:42047:1,2002-09-05T05:39:00Z,27.8966,-93.5973,1011.44,11111222 
TABS,ioos:station:wmo:42047:1,2002-09-05T06:09:00Z,27.8966,-93.5973,1010.93,11111222 
TABS,ioos:station:wmo:42047:1,2002-09-05T06:39:00Z,27.8966,-93.5973,1010.62,11111222 
TABS,ioos:station:wmo:42047:1,2002-09-05T07:09:00Z,27.8966,-93.5973,1010.55,11111222 
TABS,ioos:station:wmo:42047:1,2002-09-05T07:39:00Z,27.8966,-93.5973,1009.92,11111222 
TABS,ioos:station:wmo:42047:1,2002-09-05T08:09:00Z,27.8966,-93.5973,1009.54,11111222 
TABS,ioos:station:wmo:42047:1,2002-09-05T08:39:00Z,27.8966,-93.5973,1009.54,11111222 
TABS,ioos:station:wmo:42047:1,2002-09-05T09:09:00Z,27.8966,-93.5973,1008.96,11111222 
TABS,ioos:station:wmo:42047:1,2002-09-05T09:39:00Z,27.8966,-93.5973,1008.96,11111222 
TABS,ioos:station:wmo:42047:1,2002-09-05T10:09:00Z,27.8966,-93.5973,1008.58,11111222 
TABS,ioos:station:wmo:42047:1,2002-09-05T10:39:00Z,27.8966,-93.5973,1008.65,11111222 
TABS,ioos:station:wmo:42047:1,2002-09-05T11:09:00Z,27.8966,-93.5973,1008.77,11111222 
TABS,ioos:station:wmo:42047:1,2002-09-05T11:39:00Z,27.8966,-93.5973,1008.71,11111222 
TABS,ioos:station:wmo:42047:1,2002-09-05T12:09:00Z,27.8966,-93.5973,1008.96,11111222 
TABS,ioos:station:wmo:42047:1,2002-09-05T12:39:00Z,27.8966,-93.5973,1009.16,11111222 
TABS,ioos:station:wmo:42047:1,2002-09-05T13:09:00Z,27.8966,-93.5973,1009.09,11111222 
TABS,ioos:station:wmo:42047:1,2002-09-05T13:39:00Z,27.8966,-93.5973,1009.35,11111222 
TABS,ioos:station:wmo:42047:1,2002-09-05T14:09:00Z,27.8966,-93.5973,1009.47,11111222 
TABS,ioos:station:wmo:42047:1,2002-09-05T14:39:00Z,27.8966,-93.5973,1009.73,11111222 
TABS,ioos:station:wmo:42047:1,2002-09-05T15:09:00Z,27.8966,-93.5973,1009.54,11111222 
TABS,ioos:station:wmo:42047:1,2002-09-05T15:39:00Z,27.8966,-93.5973,1009.54,11111222 
TABS,ioos:station:wmo:42047:1,2002-09-05T16:09:00Z,27.8966,-93.5973,1009.47,11111222 
TABS,ioos:station:wmo:42047:1,2002-09-05T16:39:00Z,27.8966,-93.5973,1009.54,11111222 
TABS,ioos:station:wmo:42047:1,2002-09-05T17:09:00Z,27.8966,-93.5973,1008.71,11111222 
TABS,ioos:station:wmo:42047:1,2002-09-05T17:39:00Z,27.8966,-93.5973,1008.46,11111222 
TABS,ioos:station:wmo:42047:1,2002-09-05T18:09:00Z,27.8966,-93.5973,1008.33,11111222 
TABS,ioos:station:wmo:42047:1,2002-09-05T18:39:00Z,27.8966,-93.5973,1008.33,11111222 
TABS,ioos:station:wmo:42047:1,2002-09-05T19:09:00Z,27.8966,-93.5973,1007.95,11111222 
TABS,ioos:station:wmo:42047:1,2002-09-05T19:39:00Z,27.8966,-93.5973,1007.82,11111222 
TABS,ioos:station:wmo:42047:1,2002-09-05T20:09:00Z,27.8966,-93.5973,1007.38,11111222 
TABS,ioos:station:wmo:42047:1,2002-09-05T20:39:00Z,27.8966,-93.5973,1006.93,11111222 
TABS,ioos:station:wmo:42047:1,2002-09-05T21:09:00Z,27.8966,-93.5973,1007.0,11111222 
TABS,ioos:station:wmo:42047:1,2002-09-05T21:39:00Z,27.8966,-93.5973,1006.81,11111222 
TABS,ioos:station:wmo:42047:1,2002-09-05T22:09:00Z,27.8966,-93.5973,1006.49,11111222 
TABS,ioos:station:wmo:42047:1,2002-09-05T22:39:00Z,27.8966,-93.5973,1006.55,11111222 
TABS,ioos:station:wmo:42047:1,2002-09-05T23:09:00Z,27.8966,-93.5973,1006.43,11111222 
TABS,ioos:station:wmo:42047:1,2002-09-05T23:39:00Z,27.8966,-93.5973,1006.55,11111222 
TABS,ioos:station:wmo:42047:1,2002-09-06T00:09:00Z,27.8966,-93.5973,1006.3,11111222 
TABS,ioos:station:wmo:42047:1,2002-09-06T00:39:00Z,27.8966,-93.5973,1006.3,11111222 
TABS,ioos:station:wmo:42047:1,2002-09-06T01:09:00Z,27.8966,-93.5973,1006.36,11111222 
TABS,ioos:station:wmo:42047:1,2002-09-06T01:39:00Z,27.8966,-93.5973,1006.55,11111222 
TABS,ioos:station:wmo:42047:1,2002-09-06T02:09:00Z,27.8966,-93.5973,1006.55,11111222 
TABS,ioos:station:wmo:42047:1,2002-09-06T02:39:00Z,27.8966,-93.5973,1006.43,11111222 
TABS,ioos:station:wmo:42047:1,2002-09-06T03:09:00Z,27.8966,-93.5973,1006.55,11111222 
TABS,ioos:station:wmo:42047:1,2002-09-06T03:39:00Z,27.8966,-93.5973,1006.49,11111222 
TABS,ioos:station:wmo:42047:1,2002-09-06T04:09:00Z,27.8966,-93.5973,1006.68,11111222 
TABS,ioos:station:wmo:42047:1,2002-09-06T04:39:00Z,27.8966,-93.5973,1006.49,11111222 
TABS,ioos:station:wmo:42047:1,2002-09-06T05:09:00Z,27.8966,-93.5973,1006.3,11111222 
TABS,ioos:station:wmo:42047:1,2002-09-06T05:39:00Z,27.8966,-93.5973,1006.04,11111222 
TABS,ioos:station:wmo:42047:1,2002-09-06T06:09:00Z,27.8966,-93.5973,1005.54,11111222 
TABS,ioos:station:wmo:42047:1,2002-09-06T06:39:00Z,27.8966,-93.5973,1005.92,11111222 
TABS,ioos:station:wmo:42047:1,2002-09-06T07:09:00Z,27.8966,-93.5973,1005.22,11111222 
TABS,ioos:station:wmo:42047:1,2002-09-06T07:39:00Z,27.8966,-93.5973,1004.71,11111222 
TABS,ioos:station:wmo:42047:1,2002-09-06T08:09:00Z,27.8966,-93.5973,1004.58,11111222 
TABS,ioos:station:wmo:42047:1,2002-09-06T08:39:00Z,27.8966,-93.5973,1004.27,11111222 
TABS,ioos:station:wmo:42047:1,2002-09-06T09:09:00Z,27.8966,-93.5973,1004.14,11111222 
TABS,ioos:station:wmo:42047:1,2002-09-06T09:39:00Z,27.8966,-93.5973,1003.7,11111222 
TABS,ioos:station:wmo:42047:1,2002-09-06T10:09:00Z,27.8966,-93.5973,1003.25,11111222 
TABS,ioos:station:wmo:42047:1,2002-09-06T10:39:00Z,27.8966,-93.5973,1003.06,11111222 
TABS,ioos:station:wmo:42047:1,2002-09-06T11:09:00Z,27.8966,-93.5973,1002.93,11111222 
TABS,ioos:station:wmo:42047:1,2002-09-06T11:39:00Z,27.8966,-93.5973,1003.19,11111222 
TABS,ioos:station:wmo:42047:1,2002-09-06T12:09:00Z,27.8966,-93.5973,1002.68,11111222 
TABS,ioos:station:wmo:42047:1,2002-09-06T12:39:00Z,27.8966,-93.5973,1002.74,11111222 
TABS,ioos:station:wmo:42047:1,2002-09-06T13:09:00Z,27.8966,-93.5973,1002.55,11111222 
TABS,ioos:station:wmo:42047:1,2002-09-06T13:39:00Z,27.8966,-93.5973,1002.68,11111222 
TABS,ioos:station:wmo:42047:1,2002-09-06T14:09:00Z,27.8966,-93.5973,1002.81,11111222 
TABS,ioos:station:wmo:42047:1,2002-09-06T14:39:00Z,27.8966,-93.5973,1003.38,11111222 
TABS,ioos:station:wmo:42047:1,2002-09-06T15:09:00Z,27.8966,-93.5973,1002.93,11111222 
TABS,ioos:station:wmo:42047:1,2002-09-06T15:39:00Z,27.8966,-93.5973,1003.0,11111222 
TABS,ioos:station:wmo:42047:1,2002-09-06T16:09:00Z,27.8966,-93.5973,1003.32,11111222 
TABS,ioos:station:wmo:42047:1,2002-09-06T16:39:00Z,27.8966,-93.5973,1002.74,11111222 
TABS,ioos:station:wmo:42047:1,2002-09-06T17:09:00Z,27.8966,-93.5973,1002.93,11111222 
TABS,ioos:station:wmo:42047:1,2002-09-06T17:39:00Z,27.8966,-93.5973,1003.06,11111222 
TABS,ioos:station:wmo:42047:1,2002-09-06T18:09:00Z,27.8966,-93.5973,1003.25,11111222 
TABS,ioos:station:wmo:42047:1,2002-09-06T18:39:00Z,27.8966,-93.5973,1003.0,11111222 